Weather in Prokop

Russia / Tomsk District     58°42′20″N   81°21′02″E
temp.,
°C
wind,
m/s
gust,
m/s
humid.,
%
clouds,
%
prec.,
mm/h
press.,
hPa
HPBL,
m
27 january, thu
thu2701:00−25wsw11100100 0.1 10309
04:00−27sw11100100 0.0 10309
07:00−27s11100100 0.1 10329
10:00−28s22100100 0.0 103314
13:00−18s239551 0.0 1032132
16:00−15sse249416 0.0 1032169
19:00−20sse2510033 0.0 103354
22:00−20s379973 0.0 1033104
28 january, fri
fri2801:00−20s379884 0.0 1032118
04:00−20sse3897100 0.0 1031141
07:00−20s399691 0.0 1030173
10:00−18s41095100 0.0 1029254
13:00−14s4109299 0.0 1028327
16:00−12s3892100 0.1 1028364
19:00−14s389578 0.1 1028211
22:00−15ssw399686 0.0 1028193
29 january, sat
sat2901:00−18ssw269980 0.0 102899
04:00−20ssw2610078 0.0 102889
07:00−20ssw2610081 0.0 102885
10:00−21ssw2510075 0.0 102976
13:00−15sw249482 0.0 1029172
16:00−13ssw249479 0.0 1029206
19:00−19ssw2210077 0.0 103011
22:00−20ssw22100100 0.0 103029
30 january, sun
sun3001:00−20sw2310098 0.0 103144
04:00−22ssw2210089 0.0 103132
07:00−24ssw1110095 0.0 10319
10:00−23sse2210098 0.0 103133
13:00−15se249293 0.0 1030133
16:00−13ese359358 0.0 1029180
19:00−16ese3995100 0.0 1028156
22:00−16se3109646 0.0 1027172
31 january, mon
mon3101:00−16se3994100 0.0 1026166
04:00−14se389574 0.0 1025191
07:00−11se3895100 0.1 1024232
10:00−9sse3895100 0.4 1023312
13:00−6s3792100 0.9 1023461
16:00−6ssw3686100 0.1 1024549
19:00−10ssw369360 0.1 1025112
22:00−14ssw389562 0.0 1026139